Weather in Tobolsk

Russia / Tyumen Oblast     58°12′06″N   68°15′13″E
temp.,
°C
wind,
m/s
gust,
m/s
humid.,
%
clouds,
%
prec.,
mm/h
press.,
hPa
HPBL,
m
18 may, tue
tue1823:00+16w368136 2.1 1011135
02:00+15wsw228714 0.0 101015
05:00+14w410835 0.0 1010245
08:00+18nw68696 0.0 1010704
11:00+15n6882100 0.1 1012764
14:00+12n698488 0.3 1015582
17:00+13n7977100 0.4 1016791
20:00+13nne596575 0.0 1018795
19 may, wed
wed1923:00+10n511705 0.1 1020328
02:00+8n410805 0.0 1021253
05:00+7n38851 0.0 1022215
08:00+12n5651100 0.0 1023885
11:00+14n673797 0.0 10241580
14:00+16n68345 0.0 10231742
17:00+16n673454 0.0 10231710
20:00+13nne4744100 0.0 1024256
20 may, thu
thu2023:00+9ne335483 0.0 102553
02:00+8e1257100 0.0 102411
05:00+8s346078 0.0 102475
08:00+13sw5844100 0.0 1022580
11:00+18wsw6941100 0.0 10191192
14:00+23wnw7113653 0.0 10171728
17:00+26nw61236100 0.0 10152772
20:00+19e127172 1.3 101629
21 may, fri
fri2123:00+13ese35957 2.9 101899
02:00+11e229314 0.6 101828
05:00+12se22871 0.7 101932
08:00+17se22683 0.0 1020271
11:00+23sse22515 0.0 1020653
14:00+27s223923 0.0 10201252
17:00+28sse33345 0.0 10191594
20:00+23sse485141 0.0 1019126
22 may, sat
sat2223:00+19s411625 0.0 1019168
02:00+17sw37675 0.0 1019106
05:00+16sw35625 0.0 102073
08:00+23sw46420 0.0 1020368
11:00+27sw68270 0.0 10192078
14:00+29wsw68220 0.0 10182753
17:00+29sw682649 0.0 10173070
20:00+24w484166 0.1 1018147